C/2007 D1 ( LINEAR )

Japanese version
Home page
Updated on February 10, 2013

---------------------------------------------------------------------

* Profile

Discovery Date February 17, 2007
Magnitude 18.9 mag
Discoverer Lincoln Laboratory Near-Earth Asteroid Research project

* Pictures

* Orbital Elements

Epoch 2007 June 29.0 TT = JDT 2454280.5
T 2007 June 19.45662 TT                                 MPC
q   8.7937193            (2000.0)            P               Q
z  -0.0002187      Peri.  340.15901     -0.88994442     -0.44441754
 +/-0.0000013      Node   171.09853     +0.45350760     -0.83856828
e   1.0019231      Incl.   41.45027     -0.04826781     +0.31511316
From 447 observations 2007 Feb. 17-2012 May 19, mean residual 0".6.

* Finding Charts

* Magnitudes Graph

        m1 = 3.0 + 5 log d + 10.0 log r

---------------------------------------------------------------------

The orbital elements are published on M.P.E.C. 2012-K56.
The charts are made with StellaNavigator Ver.2.0 for Windows (AstroArts / ASCII).
The magnitudes graphs are made with Comet for Windows.

---------------------------------------------------------------------

Copyright(C) Seiichi Yoshida (comet@aerith.net). All rights reserved.